TimePST,TemperatureF,Dew PointF,Humidity,Sea Level PressureIn,VisibilityMPH,Wind Direction,Wind SpeedMPH,Gust SpeedMPH,PrecipitationIn,Events,Conditions,WindDirDegrees,DateUTC
12:53 AM,51.1,48.0,89,30.28,9.0,West,8.1,-,N/A,,Clear,260,2013-02-25 08:53:00
1:53 AM,51.1,48.0,89,30.28,9.0,SW,10.4,-,N/A,,Clear,230,2013-02-25 09:53:00
2:53 AM,50.0,46.9,89,30.27,9.0,WSW,10.4,-,N/A,,Clear,250,2013-02-25 10:53:00
3:53 AM,50.0,48.0,93,30.28,8.0,SSW,8.1,-,N/A,,Partly Cloudy,210,2013-02-25 11:53:00
4:53 AM,46.9,46.0,97,30.27,9.0,SE,5.8,-,N/A,,Partly Cloudy,140,2013-02-25 12:53:00
5:53 AM,43.0,42.1,97,30.28,9.0,NNE,3.5,-,N/A,,Partly Cloudy,20,2013-02-25 13:53:00
6:53 AM,43.0,42.1,97,30.29,7.0,NE,3.5,-,N/A,,Scattered Clouds,50,2013-02-25 14:53:00
7:53 AM,48.0,46.0,93,30.30,7.0,ESE,5.8,-,N/A,,Mostly Cloudy,110,2013-02-25 15:53:00
8:53 AM,52.0,42.1,69,30.29,10.0,ESE,8.1,-,N/A,,Scattered Clouds,120,2013-02-25 16:53:00
9:53 AM,53.1,44.1,71,30.28,10.0,SSE,5.8,-,N/A,,Clear,160,2013-02-25 17:53:00
10:53 AM,54.0,46.0,75,30.28,10.0,SSW,3.5,-,N/A,,Partly Cloudy,200,2013-02-25 18:53:00
11:53 AM,57.0,45.0,64,30.27,10.0,Calm,Calm,-,N/A,,Partly Cloudy,0,2013-02-25 19:53:00
12:53 PM,57.9,46.0,65,30.24,10.0,SW,8.1,-,N/A,,Partly Cloudy,220,2013-02-25 20:53:00
1:53 PM,60.1,48.9,67,30.23,10.0,WSW,11.5,-,N/A,,Partly Cloudy,240,2013-02-25 21:53:00
2:53 PM,61.0,50.0,67,30.22,10.0,West,8.1,-,N/A,,Partly Cloudy,260,2013-02-25 22:53:00
3:53 PM,60.1,51.1,72,30.21,10.0,WSW,10.4,-,N/A,,Partly Cloudy,240,2013-02-25 23:53:00
4:53 PM,60.1,48.9,67,30.19,10.0,West,10.4,-,N/A,,Partly Cloudy,270,2013-02-26 00:53:00
5:53 PM,55.9,48.9,77,30.20,10.0,West,11.5,-,N/A,,Partly Cloudy,260,2013-02-26 01:53:00
6:01 PM,55.4,48.2,77,30.20,10.0,West,11.5,-,N/A,,Partly Cloudy,270,2013-02-26 02:01:00
6:53 PM,54.0,46.9,77,30.21,10.0,West,9.2,-,N/A,,Partly Cloudy,280,2013-02-26 02:53:00
7:53 PM,53.1,46.9,80,30.22,10.0,WNW,5.8,-,N/A,,Partly Cloudy,290,2013-02-26 03:53:00
8:53 PM,52.0,46.9,83,30.22,10.0,WNW,4.6,-,N/A,,Partly Cloudy,290,2013-02-26 04:53:00
9:53 PM,50.0,46.9,89,30.23,10.0,Calm,Calm,-,N/A,,Partly Cloudy,0,2013-02-26 05:53:00
10:53 PM,46.9,45.0,93,30.23,10.0,Calm,Calm,-,N/A,,Partly Cloudy,0,2013-02-26 06:53:00
11:53 PM,46.0,45.0,96,30.24,10.0,North,4.6,-,N/A,,Partly Cloudy,360,2013-02-26 07:53:00